Home > Weather > Växjö > Past weeks

Flag for Sweden Weather for the Past 2 Weeks in Växjö, Sweden

Now
43 °F

Scattered clouds.


Feels Like: 41 °F
Forecast: 35 / 66 °F
Wind: 3 mph from Northwest

Location: Vaxjo Airport

Current Time: May 5, 2016 at 6:57:31 AM

Latest Report: May 5, 2016 at 6:20 AM


Visibility: N/A

Pressure: 30.36 "Hg

Humidity: 76%

Dew Point: 36 °F

Location of VäxjöLocation

Historic Weather in Växjö — Graph

°F

Växjö Temperature Yesterday

Maximum temperature yesterday: 64 °F (at 3:50 PM)
Minimum temperature yesterday: 37 °F (at 5:20 AM)
Average temperature yesterday: 51 °F

High & Low Weather Summary for the Past Weeks

 TemperatureHumidityPressure
High64 °F (May 2, 2:50 PM)100% (Apr 21, 6:20 AM)30.36 "Hg (Apr 21, 6:20 AM)
Low27 °F (Apr 23, 3:50 AM)21% (May 2, 4:50 PM)29.53 "Hg (Apr 27, 1:50 AM)
Average44 °F69%29.94 "Hg
* Reported Apr 20 5:20 AM — May 5 5:20 AM, Växjö, Weather by CustomWeather, © 2016

Note: Actual official high and low records may vary slightly from our data, if they occured in-between our weather recording intervals... More about our weather records

Advertising

Växjö Weather History for the Previous 24 Hours

Scroll right to see more
 ConditionsComfort  
Time TempWeatherWind HumidityBarometerVisibility
5:20 AM
Thu, May 5
41 °FPassing clouds.2 mph81%30.36 "HgN/A
4:50 AM41 °FPassing clouds.2 mph81%30.36 "HgN/A
4:20 AM37 °FOvercast.5 mph87%30.36 "HgN/A
3:50 AM37 °FOvercast.2 mph87%30.36 "HgN/A
3:20 AM39 °FPassing clouds.3 mph81%30.36 "HgN/A
2:50 AM39 °FChilly.No wind81%30.36 "HgN/A
2:20 AM41 °FQuite cool.3 mph76%30.33 "HgN/A
1:50 AM41 °FQuite cool.6 mph76%30.36 "HgN/A
1:20 AM43 °FPassing clouds.7 mph71%30.33 "HgN/A
12:50 AM45 °FPassing clouds.7 mph66%30.33 "HgN/A
12:20 AM46 °FPassing clouds.6 mph62%30.33 "HgN/A
11:50 PM
Wed, May 4
46 °FCool.7 mph62%30.33 "HgN/A
11:20 PM48 °FCool.7 mph58%30.33 "HgN/A
10:50 PM50 °FPassing clouds.7 mph54%30.33 "HgN/A
10:20 PM50 °FCool.6 mph54%30.30 "HgN/A
9:50 PM52 °FClear.6 mph47%30.30 "Hg10 mi
9:20 PM54 °FPassing clouds.5 mph44%30.30 "HgN/A
8:50 PM54 °FSunny.2 mph47%30.27 "Hg10 mi
8:20 PM59 °FSunny.3 mph36%30.27 "Hg10 mi
7:50 PM61 °FPassing clouds.6 mph36%30.27 "HgN/A
7:20 PM61 °FPassing clouds.6 mph34%30.27 "HgN/A
6:50 PM63 °FPassing clouds.7 mph34%30.27 "HgN/A
6:20 PM61 °FSunny.7 mph39%30.27 "Hg10 mi
5:50 PM61 °FPassing clouds.8 mph36%30.27 "HgN/A
5:20 PM63 °FPassing clouds.7 mph34%30.27 "HgN/A
4:20 PM61 °FPassing clouds.5 mph36%30.27 "HgN/A
3:50 PM64 °FPassing clouds.10 mph34%30.24 "HgN/A
3:20 PM63 °FScattered clouds.8 mph34%30.24 "HgN/A
2:50 PM63 °FPassing clouds.7 mph37%30.24 "HgN/A
2:20 PM61 °FPassing clouds.5 mph36%30.27 "HgN/A
1:50 PM59 °FPassing clouds.7 mph42%30.24 "HgN/A
1:20 PM61 °FPassing clouds.10 mph42%30.24 "HgN/A
12:50 PM59 °FPassing clouds.12 mph45%30.24 "HgN/A
12:20 PM59 °FPassing clouds.12 mph45%30.24 "HgN/A
11:50 AM57 °FPassing clouds.8 mph41%30.24 "HgN/A
11:20 AM55 °FPassing clouds.7 mph47%30.24 "HgN/A
10:50 AM54 °FPassing clouds.5 mph58%30.24 "HgN/A
10:20 AM52 °FPassing clouds.7 mph62%30.24 "HgN/A
9:50 AM50 °FPassing clouds.7 mph71%30.24 "HgN/A
9:20 AM48 °FPassing clouds.6 mph71%30.24 "HgN/A
8:50 AM45 °FScattered clouds.7 mph81%30.24 "HgN/A
8:20 AM43 °FPartly sunny.9 mph87%30.24 "HgN/A
7:50 AM43 °FPartly sunny.7 mph87%30.21 "HgN/A
7:20 AM43 °FPartly sunny.9 mph93%30.21 "HgN/A
6:50 AM41 °FScattered clouds.5 mph93%30.21 "HgN/A
6:20 AM39 °FSunny.3 mph93%30.18 "Hg10 mi
Weather by CustomWeather, © 2016

See weather overviewHow to use our weather pages